Home   Weather   Hanoi   Past weeks

Flag for Vietnam Past Weather in Hanoi, Vietnam — Yesterday and Last 2 Weeks

Now
79 °F

Heavy rain. Passing clouds.


Feels Like: 83 °F
Forecast: 71 / 78 °F
Wind: 3 mph from Southeast

Location: Ha Noi Airport

Current Time: Apr 27, 2017 at 1:16:26 am

Latest Report: Apr 27, 2017 at 12:30 am


Visibility: 2 mi

Pressure: 29.83 "Hg

Humidity: 100%

Dew Point: 79 °F

Location of HanoiLocation

Past Weather in Hanoi — Graph

°F

Hanoi Temperature Yesterday

Maximum temperature yesterday: 88 °F (at 2:30 pm)
Minimum temperature yesterday: 75 °F (at 2:00 am)
Average temperature yesterday: 81 °F

High & Low Weather Summary for the Past Weeks

 TemperatureHumidityPressure
High93 °F (Apr 21, 3:00 pm)100% (Apr 12, 4:30 am)30.09 "Hg (Apr 12, 4:30 am)
Low68 °F (Apr 12, 11:00 am)48% (Apr 13, 12:00 pm)29.59 "Hg (Apr 19, 3:00 pm)
Average76 °F90%29.84 "Hg
* Reported Apr 12 12:00 am — Apr 27 12:00 am, Hanoi, Weather by CustomWeather, © 2017

Note: Actual official high and low records may vary slightly from our data, if they occured in-between our weather recording intervals... More about our weather records

Advertising

Hanoi Weather History for the Previous 24 Hours

Scroll right to see more
 ConditionsComfort  
Time TempWeatherWind HumidityBarometerVisibility
12:00 am
Thu, Apr 27
79 °FHeavy rain. Partly cloudy.2 mph100%29.86 "Hg1 mi
11:30 pm
Wed, Apr 26
81 °FLight rain. Passing clouds.7 mph94%29.86 "Hg6 mi
11:00 pm81 °FPassing clouds.7 mph94%29.86 "Hg5 mi
10:30 pm81 °FFog.8 mph94%29.86 "Hg3 mi
10:00 pm81 °FFog.5 mph94%29.83 "Hg3 mi
9:30 pm81 °FFog.5 mph94%29.83 "Hg3 mi
9:00 pm81 °FFog.3 mph94%29.80 "Hg3 mi
8:30 pm81 °FFog.5 mph94%29.80 "Hg3 mi
8:00 pm81 °FFog.5 mph94%29.77 "Hg3 mi
7:00 pm82 °FClear.6 mph94%29.77 "Hg4 mi
6:30 pm82 °FFog.6 mph94%29.74 "Hg3 mi
6:00 pm84 °FFog.7 mph89%29.71 "Hg3 mi
5:30 pm86 °FClear.3 mph79%29.71 "Hg4 mi
5:00 pm88 °FClear.3 mph75%29.71 "Hg5 mi
4:30 pm88 °FClear.5 mph75%29.71 "Hg6 mi
4:00 pm88 °FClear.5 mph70%29.71 "Hg6 mi
3:30 pm88 °FClear.3 mph75%29.71 "Hg6 mi
3:00 pm88 °FPassing clouds.5 mph75%29.74 "Hg6 mi
2:30 pm88 °FBroken clouds.6 mph70%29.77 "Hg6 mi
2:00 pm84 °FBroken clouds.3 mph79%29.77 "Hg5 mi
1:30 pm84 °FBroken clouds.5 mph79%29.77 "Hg5 mi
1:00 pm84 °FBroken clouds.5 mph79%29.80 "Hg5 mi
12:30 pm84 °FBroken clouds.3 mph79%29.80 "Hg5 mi
12:00 pm84 °FBroken clouds.3 mph79%29.83 "Hg6 mi
11:30 am84 °FBroken clouds.3 mph79%29.83 "Hg6 mi
11:00 am82 °FPartly sunny.3 mph84%29.83 "Hg6 mi
10:30 am82 °FPartly sunny.1 mph79%29.83 "HgN/A
10:00 am82 °FPartly sunny.6 mph84%29.86 "HgN/A
9:30 am81 °FPartly sunny.5 mph89%29.86 "Hg6 mi
9:00 am81 °FPartly sunny.5 mph89%29.86 "Hg4 mi
8:30 am81 °FPartly sunny.3 mph89%29.86 "Hg4 mi
8:00 am79 °FFog.3 mph94%29.86 "Hg3 mi
7:30 am79 °FFog.7 mph94%29.83 "Hg3 mi
7:00 am77 °FFog.6 mph94%29.83 "Hg2 mi
6:30 am77 °FFog.5 mph94%29.80 "Hg2 mi
6:00 am75 °FFog.2 mph94%29.80 "Hg2 mi
5:30 am75 °FFog.5 mph94%29.80 "Hg2 mi
5:00 am75 °FFog.3 mph94%29.77 "Hg3 mi
4:30 am75 °FPassing clouds.5 mph94%29.77 "Hg4 mi
4:00 am75 °FFog.5 mph94%29.77 "Hg3 mi
3:30 am75 °FFog.6 mph94%29.77 "Hg3 mi
3:00 am75 °FFog.5 mph94%29.77 "Hg3 mi
2:30 am75 °FPartly cloudy.5 mph94%29.77 "Hg4 mi
2:00 am75 °FPartly cloudy.6 mph94%29.77 "Hg4 mi
1:00 am77 °FPassing clouds.7 mph94%29.80 "Hg4 mi
Weather by CustomWeather, © 2017

See weather overviewHow to use our weather pages